Montreal/Mirabel, Ontario

2:13 AM EST on December 08, 2016 (GMT -0500)
Montreal International (Mirabel)

Weather History for CYMX - February, 2014

Change the Weather History Date:

Sunday, February 23, 2014

  Actual Average Record
Temperature  
Mean Temperature 26 °F -  
Max Temperature 32 °F 24 °F 35 °F (2012)
Min Temperature 21 °F 7 °F -14 °F (1999)
Degree Days  
Heating Degree Days 38    
Moisture  
Dew Point 14 °F    
Average Humidity 57    
Maximum Humidity 69    
Minimum Humidity 48    
Precipitation  
Precipitation 0.00 in - - ()
Sea Level Pressure  
Sea Level Pressure 29.84 in    
Wind  
Wind Speed 7 mph ()    
Max Wind Speed 15 mph    
Max Gust Speed 24 mph    
Averages and records for this station are not official NWS values.
T = Trace of Precipitation, MM = Missing Value Source: Averaged Metar Reports

Daily Weather History Graph

Daily Weather History Graph

Search for Another Location

Airport or City:

Trip Planner

Search our weather history database for the weather conditions in past years. The results will help you decide how hot, cold, wet, or windy it might be!

Date:

Astronomy

Feb. 23, 2014 Rise Set
Actual Time 6:45 AM EST 5:34 PM EST
Civil Twilight 6:15 AM EST 6:04 PM EST
Nautical Twilight 5:40 AM EST 6:39 PM EST
Astronomical Twilight 5:06 AM EST 7:13 PM EST
Moon 1:49 AM EST (2/23) 11:25 AM EST (2/23)
Length of Visible Light 11h 49m
Length of Day
10h 49m
Last Quarter, 39% of the Moon is Illuminated
Feb 23
Last Quarter
Mar 1
New
Mar 8
First Quarter
Mar 16
Full
Mar 23
Last Quarter

Hourly Weather History & Observations

Time (EST) Temp. Windchill Dew Point Humidity Pressure Visibility Wind Dir Wind Speed Gust Speed Precip Events Conditions
12:00 AM 28.4 °F 19.7 °F 15.8 °F 59% 29.85 in 25.0 mi SW 9.2 mph - N/A   Scattered Clouds
1:00 AM 24.8 °F 17.9 °F 14.0 °F 64% 29.86 in 25.0 mi SSW 5.8 mph - N/A   Partly Cloudy
2:00 AM 23.0 °F 17.0 °F 12.2 °F 63% 29.86 in 25.0 mi SSW 4.6 mph - N/A   Partly Cloudy
3:00 AM 26.6 °F 17.5 °F 15.8 °F 64% 29.86 in 25.0 mi SW 9.2 mph - N/A   Partly Cloudy
4:00 AM 24.8 °F 17.9 °F 15.8 °F 69% 29.86 in 25.0 mi SW 5.8 mph - N/A   Partly Cloudy
5:00 AM 24.8 °F 16.9 °F 14.0 °F 64% 29.87 in 25.0 mi SW 6.9 mph - N/A   Partly Cloudy
6:00 AM 23.0 °F 17.0 °F 10.4 °F 59% 29.90 in 25.0 mi WSW 4.6 mph - N/A   Partly Cloudy
7:00 AM 21.2 °F 16.4 °F 12.2 °F 68% 29.90 in 25.0 mi SW 3.5 mph - N/A   Partly Cloudy
8:00 AM 21.2 °F - 10.4 °F 63% 29.91 in 45.0 mi West 2.3 mph - N/A   Partly Cloudy
9:00 AM 26.6 °F 20.0 °F 12.2 °F 55% 29.91 in 45.0 mi WSW 5.8 mph - N/A   Partly Cloudy
10:00 AM 28.4 °F 19.7 °F 14.0 °F 55% 29.91 in 45.0 mi WSW 9.2 mph 18.4 mph N/A   Partly Cloudy
11:00 AM 30.2 °F 21.3 °F 15.8 °F 55% 29.89 in 45.0 mi SW 10.4 mph - N/A   Mostly Cloudy
12:00 PM 30.2 °F 19.3 °F 14.0 °F 51% 29.87 in 45.0 mi WSW 15.0 mph 21.9 mph N/A   Mostly Cloudy
1:00 PM 30.2 °F 20.2 °F 14.0 °F 51% 29.85 in 45.0 mi SW 12.7 mph 20.7 mph N/A   Mostly Cloudy
2:00 PM 30.2 °F 21.9 °F 14.0 °F 51% 29.83 in 45.0 mi SW 9.2 mph 18.4 mph N/A   Mostly Cloudy
3:00 PM 32.0 °F 23.0 °F 14.0 °F 48% 29.81 in 45.0 mi West 11.5 mph 17.3 mph N/A   Mostly Cloudy
4:00 PM 32.0 °F 24.2 °F 14.0 °F 48% 29.80 in 45.0 mi WSW 9.2 mph - N/A   Partly Cloudy
5:00 PM 30.2 °F 24.3 °F 14.0 °F 51% 29.78 in 45.0 mi WSW 5.8 mph - N/A   Scattered Clouds
6:00 PM 28.4 °F 24.6 °F 14.0 °F 55% 29.79 in 25.0 mi WSW 3.5 mph - N/A   Scattered Clouds
7:00 PM 28.4 °F 20.4 °F 14.0 °F 55% 29.79 in 25.0 mi SW 8.1 mph 19.6 mph N/A   Scattered Clouds
8:00 PM 28.4 °F 18.0 °F 14.0 °F 55% 29.78 in 25.0 mi SW 12.7 mph 24.2 mph N/A   Mostly Cloudy
9:00 PM 28.4 °F 17.5 °F 15.8 °F 59% 29.79 in 25.0 mi SW 13.8 mph 23.0 mph N/A   Mostly Cloudy
10:00 PM 26.6 °F 17.5 °F 14.0 °F 59% 29.80 in 25.0 mi WSW 9.2 mph 18.4 mph N/A   Mostly Cloudy
11:00 PM 24.8 °F 14.6 °F 10.4 °F 54% 29.80 in 25.0 mi WSW 10.4 mph 21.9 mph N/A   Mostly Cloudy